TimeCST,TemperatureF,Dew PointF,Humidity,Sea Level PressureIn,VisibilityMPH,Wind Direction,Wind SpeedMPH,Gust SpeedMPH,PrecipitationIn,Events,Conditions,WindDirDegrees,DateUTC
12:53 AM,54.0,45.0,72,30.36,10.0,Calm,Calm,-,N/A,,Mostly Cloudy,0,2013-11-30 06:53:00
1:53 AM,53.1,46.0,77,30.34,10.0,Calm,Calm,-,N/A,,Overcast,0,2013-11-30 07:53:00
2:53 AM,52.0,46.0,80,30.32,10.0,East,3.5,-,N/A,,Scattered Clouds,80,2013-11-30 08:53:00
3:53 AM,48.9,45.0,86,30.31,10.0,Calm,Calm,-,N/A,,Scattered Clouds,0,2013-11-30 09:53:00
4:53 AM,46.9,44.1,90,30.31,9.0,Calm,Calm,-,N/A,,Partly Cloudy,0,2013-11-30 10:53:00
5:53 AM,46.0,43.0,89,30.31,9.0,Calm,Calm,-,N/A,,Mostly Cloudy,0,2013-11-30 11:53:00
6:53 AM,48.0,45.0,89,30.32,8.0,Calm,Calm,-,N/A,,Mostly Cloudy,0,2013-11-30 12:53:00
7:53 AM,51.1,48.0,89,30.33,8.0,Calm,Calm,-,N/A,,Overcast,0,2013-11-30 13:53:00
8:17 AM,53.6,48.2,82,30.33,10.0,Calm,Calm,-,N/A,,Overcast,0,2013-11-30 14:17:00
8:26 AM,53.6,48.2,82,30.33,10.0,East,4.6,-,N/A,,Overcast,80,2013-11-30 14:26:00
8:53 AM,57.0,48.0,72,30.34,10.0,Calm,Calm,-,N/A,,Mostly Cloudy,0,2013-11-30 14:53:00
9:29 AM,59.0,48.2,67,30.35,10.0,East,4.6,-,N/A,,Mostly Cloudy,100,2013-11-30 15:29:00
9:38 AM,60.8,48.2,63,30.35,10.0,East,5.8,-,N/A,,Scattered Clouds,100,2013-11-30 15:38:00
9:53 AM,60.1,50.0,69,30.35,10.0,ESE,6.9,-,N/A,,Partly Cloudy,120,2013-11-30 15:53:00
10:53 AM,63.0,51.1,65,30.33,10.0,Calm,Calm,-,N/A,,Overcast,0,2013-11-30 16:53:00
11:53 AM,68.0,55.0,63,30.30,10.0,East,4.6,-,N/A,,Overcast,100,2013-11-30 17:53:00
12:31 PM,69.8,55.4,60,30.28,10.0,Calm,Calm,-,N/A,,Overcast,0,2013-11-30 18:31:00
12:53 PM,71.1,55.9,59,30.25,10.0,SSE,8.1,-,N/A,,Overcast,160,2013-11-30 18:53:00
1:53 PM,71.1,55.0,57,30.23,10.0,SW,9.2,-,N/A,,Overcast,220,2013-11-30 19:53:00
2:53 PM,72.0,55.0,55,30.19,10.0,SSW,5.8,-,N/A,,Overcast,200,2013-11-30 20:53:00
3:53 PM,71.1,55.0,57,30.19,10.0,South,3.5,-,N/A,,Overcast,190,2013-11-30 21:53:00
4:53 PM,71.1,55.0,57,30.17,10.0,SSE,5.8,-,N/A,,Overcast,150,2013-11-30 22:53:00
5:53 PM,68.0,55.9,65,30.18,10.0,Calm,Calm,-,N/A,,Mostly Cloudy,0,2013-11-30 23:53:00
6:53 PM,64.0,55.9,75,30.19,10.0,Calm,Calm,-,N/A,,Overcast,0,2013-12-01 00:53:00
7:53 PM,64.0,55.9,75,30.20,10.0,SSE,4.6,-,N/A,,Mostly Cloudy,150,2013-12-01 01:53:00
8:53 PM,64.0,55.9,75,30.20,10.0,SSE,5.8,-,N/A,,Overcast,160,2013-12-01 02:53:00
9:53 PM,64.9,55.9,73,30.20,10.0,SSE,9.2,-,N/A,,Overcast,160,2013-12-01 03:53:00
10:53 PM,63.0,55.9,78,30.20,10.0,South,8.1,-,N/A,,Overcast,180,2013-12-01 04:53:00
11:53 PM,62.1,55.9,80,30.18,10.0,South,5.8,-,N/A,,Mostly Cloudy,180,2013-12-01 05:53:00